Temperature
16 16 17 17 14 12 14 14 15 16 16 17 16 16 14 14 15 14 13 13 14 14 14 14 14 14 14 14 14 15 15 14 14 15 15 15 15 15 15 15 15 15 15 15 15 15 15 15 15
16 17 17 16 12 13 14 14 15 16 17 17 16 15 14 13 13 13 13 13 13 13 13 14 14 14 14 14 14 14 14 14 14 14 14 14 14 14 14 15 15 15 15 15 15 15 15 15 15
16 16 17 12 12 13 14 15 15 16 17 17 15 14 13 13 13 13 13 13 13 13 13 13 13 14 14 14 14 14 14 14 14 14 14 14 14 14 14 14 14 15 15 15 15 15 15 15 15
16 16 15 12 13 13 14 15 15 15 16 16 15 13 12 12 13 13 13 13 13 13 13 13 13 13 14 14 14 14 14 14 14 14 14 14 14 14 14 14 14 14 14 15 14 14 14 14 15
16 15 12 12 13 13 14 15 15 14 14 15 14 12 12 12 12 13 13 13 13 13 13 13 13 13 13 13 13 13 14 13 14 14 14 14 14 14 14 14 14 14 14 14 14 14 14 14 14
15 13 11 12 13 14 14 15 15 14 14 14 13 11 11 12 12 12 12 12 13 13 13 13 13 13 13 13 13 13 13 13 13 13 13 13 14 14 14 14 14 14 14 14 14 14 14 14 14
14 11 11 12 12 13 14 15 14 13 12 13 13 11 11 11 11 12 12 12 12 12 12 12 12 12 13 13 13 13 13 13 13 13 13 13 13 13 13 13 13 13 13 14 14 13 14 13 13
15 10 12 12 12 13 14 14 14 13 12 13 13 11 11 11 11 12 12 12 12 12 12 12 12 12 12 12 12 12 13 13 13 13 13 13 13 13 13 13 13 13 13 13 13 13 13 13 13
14 10 11 12 12 13 13 13 13 13 12 12 12 12 12 11 11 11 11 11 11 11 11 11 11 11 12 12 12 12 12 12 12 12 12 12 12 12 12 13 13 13 13 13 13 13 13 13 13
13 9 11 12 12 12 12 12 12 12 11 10 11 11 11 11 11 11 11 11 11 11 11 11 11 11 11 11 11 11 12 12 12 12 12 12 12 12 12 12 12 12 12 12 12 12 12 13 13
11 10 11 11 12 12 12 11 12 11 10 10 10 10 10 10 10 10 10 10 10 10 10 10 10 11 11 11 11 11 11 11 11 11 11 11 11 11 11 11 11 12 12 12 12 12 12 12 12
10 10 11 11 12 12 11 11 10 10 10 11 10 10 10 10 10 10 10 10 10 10 10 10 10 10 10 11 11 11 11 11 11 10 10 11 11 11 11 11 11 11 11 11 11 11 11 11 12
10 10 11 11 12 11 11 10 9 9 10 10 10 10 9 9 9 9 9 9 9 9 9 9 10 10 10 10 10 10 10 10 10 10 10 10 10 10 10 10 10 10 10 10 10 11 11 11 11
10 10 10 10 11 10 10 9 9 9 10 10 9 9 9 9 9 9 9 9 9 9 9 9 9 9 9 9 9 9 9 9 10 10 10 9 9 9 9 9 9 10 10 10 10 10 10 10 10
10 9 9 9 10 10 10 8 8 9 9 9 9 8 8 8 8 8 8 8 8 8 8 8 9 9 9 9 9 9 9 9 9 9 9 9 9 9 9 9 9 9 9 9 9 9 9 10 10
9 8 8 9 9 9 9 8 8 9 9 8 8 8 8 7 7 8 8 8 8 8 8 8 8 8 8 8 8 8 8 8 8 8 8 8 8 8 8 8 8 8 8 8 8 9 9 9 9
8 7 8 8 9 8 8 7 8 8 8 7 7 7 7 7 7 7 7 7 7 7 7 7 7 7 7 7 7 7 7 7 7 7 7 7 7 7 7 7 7 7 8 8 8 8 8 8 8
7 7 7 8 8 8 7 7 7 7 7 7 7 6 6 6 6 6 6 6 6 6 7 7 7 7 7 7 7 7 7 7 6 6 7 7 7 6 7 7 7 7 7 7 7 7 7 7 8
7 7 7 7 8 8 7 6 6 6 6 6 6 6 6 6 6 6 6 6 6 6 6 6 6 6 6 6 6 6 6 6 6 6 6 6 6 6 6 6 6 6 6 7 7 7 7 7 7
7 7 6 7 7 7 6 6 6 6 6 6 5 5 5 5 5 5 5 5 5 5 5 5 5 5 5 5 5 5 5 5 5 5 5 5 5 5 5 5 6 6 6 6 6 6 6 6 6
6 6 6 6 6 6 6 5 5 5 5 5 5 5 5 5 5 5 5 5 5 5 5 5 5 5 5 5 5 5 5 5 5 5 5 5 5 5 4 5 5 5 5 5 5 5 6 6 6
6 6 6 6 5 4 5 4 4 4 4 4 4 4 4 4 5 4 4 4 4 4 4 4 4 4 4 4 4 4 4 4 4 4 4 4 4 4 4 4 4 4 5 5 5 5 5 5 5
5 6 6 5 5 4 4 4 4 3 4 3 3 4 4 4 4 4 4 4 4 4 4 4 4 4 4 3 3 3 3 3 3 3 3 3 3 3 3 3 3 4 4 4 4 4 4 4 5
5 5 4 3 3 3 4 3 4 3 4 3 3 3 3 3 4 4 3 3 3 3 3 3 3 3 3 3 3 3 3 3 3 3 3 3 3 3 3 3 3 3 3 3 3 3 3 4 4
4 3 3 3 2 3 3 3 3 3 3 3 3 3 3 3 3 3 3 3 3 3 3 3 3 3 2 2 2 2 2 2 2 2 2 2 2 2 2 2 2 2 3 3 3 3 3 3 3
4 3 3 3 3 2 3 3 3 3 3 4 4 3 3 3 3 3 2 2 2 2 2 2 2 2 2 2 2 2 2 2 2 1 1 2 2 2 2 2 2 2 2 2 2 2 2 2 2
4 3 3 2 1 2 2 2 3 3 3 2 2 2 2 2 2 2 2 2 2 1 2 1 1 1 1 1 1 1 1 1 1 1 1 1 1 1 1 1 1 2 2 2 2 2 2 2 2
4 3 1 1 2 2 2 2 3 2 2 1 1 1 2 2 2 2 2 1 1 1 1 1 1 1 1 1 1 1 1 0 0 0 0 0 1 1 1 1 1 1 1 1 1 1 1 1 1
3 3 2 0 1 2 2 3 3 2 2 1 1 1 1 1 1 1 1 1 1 1 0 0 0 0 0 0 0 0 -0 -0 -0 -0 -0 -0 0 0 0 0 0 1 1 1 1 1 1 1 1
3 2 1 1 1 0 1 2 3 2 2 1 1 1 1 1 1 1 1 0 0 -0 -0 -0 -0 -0 -0 -0 -0 -1 -1 -1 -1 -0 -0 -0 -0 -0 -0 -0 0 0 0 0 0 0 0 0 1
Wind_Speed
11 9 2 4 5 4 1 3 2 2 1 1 3 6 7 5 3 4 1 2 4 4 4 6 8 8 8 7 8 8 9 9 9 9 8 8 8 8 8 8 7 6 6 6 7 7 7 8 8
6 3 5 5 5 2 3 4 2 3 3 3 4 5 6 5 3 4 2 2 5 5 5 6 8 9 8 8 9 9 9 9 9 9 8 8 8 8 8 8 7 6 5 6 6 6 6 7 7
5 2 4 5 4 5 4 3 3 2 2 2 4 5 4 3 2 2 1 3 6 6 6 6 8 8 9 9 9 9 9 9 8 8 8 8 8 8 8 8 7 7 6 5 5 5 5 6 7
3 5 5 4 3 3 4 3 2 1 4 4 4 5 3 3 1 2 3 6 7 6 7 7 9 9 9 9 9 9 9 8 8 8 8 7 7 7 7 7 7 7 6 6 5 5 5 5 5
4 4 4 1 3 2 2 3 1 2 2 3 3 5 2 4 4 6 6 7 6 5 7 7 9 9 9 9 9 9 9 8 8 8 8 7 7 7 6 6 6 6 6 5 5 5 4 4 5
4 4 4 3 4 2 2 2 1 2 1 2 3 4 2 2 4 5 6 7 6 6 7 7 8 9 9 9 9 9 8 8 8 8 8 8 7 6 6 6 6 5 5 5 4 5 4 4 4
4 4 4 4 3 3 2 1 1 1 1 2 2 5 2 1 2 4 6 7 7 8 8 8 7 7 8 8 8 9 8 8 8 8 8 8 7 6 5 5 5 5 5 5 4 4 4 4 3
4 4 2 3 4 3 1 1 2 2 1 2 3 5 3 3 2 6 7 7 7 7 7 7 8 7 6 7 8 8 8 8 8 8 8 8 8 7 6 6 5 4 4 4 4 4 4 4 3
4 3 3 4 5 3 1 2 3 3 3 3 3 2 2 5 6 7 7 6 6 6 5 6 7 7 6 6 7 7 7 8 8 8 8 8 8 7 7 6 5 5 5 4 4 5 5 4 3
4 3 4 2 3 2 1 2 1 3 3 3 4 4 6 7 7 7 5 5 4 4 3 4 5 6 6 5 6 6 6 7 8 7 7 7 7 7 7 6 6 5 4 5 5 5 5 5 4
3 4 2 1 0 1 1 2 2 2 1 2 2 4 5 6 5 5 4 3 3 2 2 3 4 5 5 5 5 5 5 6 7 7 7 7 7 7 7 7 6 6 5 5 5 5 5 5 4
1 0 1 1 2 1 0 0 2 0 3 2 4 5 6 6 5 4 4 2 2 3 2 2 4 5 5 5 5 5 5 5 5 5 6 6 5 5 5 5 5 5 4 4 4 4 4 5 4
1 0 1 1 3 1 2 0 1 2 1 2 4 4 5 5 3 2 3 3 3 3 3 3 4 4 4 5 4 5 4 4 5 5 5 5 4 4 4 4 4 5 4 3 3 3 3 3 3
2 1 1 2 1 1 1 2 0 3 3 4 4 3 3 3 3 3 3 2 2 2 2 2 4 5 5 4 4 4 4 4 5 5 5 5 4 3 3 3 3 4 4 3 2 2 2 2 2
2 2 3 2 1 1 2 3 3 4 4 3 2 3 2 2 3 3 2 2 2 2 2 2 3 5 5 5 5 5 5 5 5 5 5 5 4 3 3 2 3 3 4 3 3 3 2 2 2
2 2 1 3 1 1 2 6 5 3 4 3 3 3 3 2 2 2 3 3 3 3 3 3 4 4 4 5 5 5 5 5 5 5 5 6 5 4 3 3 3 4 3 3 2 1 2 2 2
2 1 3 4 2 0 2 6 5 2 4 4 3 3 3 2 2 2 2 3 3 3 3 3 4 3 4 5 5 5 5 5 6 6 6 6 6 5 4 3 3 4 3 2 2 2 1 1 2
3 2 3 5 3 0 3 6 5 3 4 4 3 2 3 3 2 1 2 2 3 3 3 3 3 3 3 3 3 3 4 4 5 5 6 7 6 6 5 3 4 4 2 2 1 1 2 1 1
3 2 4 5 3 2 6 7 7 3 3 4 4 3 3 3 2 1 2 3 3 3 3 3 3 3 2 2 2 2 2 2 3 4 6 6 6 6 5 4 3 3 2 1 1 0 1 1 1
2 2 3 4 4 2 5 7 5 3 4 5 6 5 4 2 2 2 2 2 2 2 3 3 2 2 2 1 1 1 1 1 1 4 5 6 6 6 5 4 2 2 2 2 1 1 0 1 1
1 3 4 4 5 3 2 5 4 1 1 2 3 4 3 3 3 2 1 2 2 2 1 2 2 2 2 2 2 2 2 2 3 3 3 5 5 6 5 4 3 2 1 0 0 0 0 0 1
3 3 3 2 1 4 0 4 5 3 2 2 3 2 2 2 2 2 2 1 0 0 1 1 1 1 2 2 1 1 1 1 2 2 2 4 5 4 4 4 3 3 2 1 1 0 0 1 1
4 2 2 2 1 2 2 3 6 1 3 5 4 4 3 2 2 2 2 2 1 0 0 1 1 1 2 1 1 1 1 1 2 2 3 3 4 4 4 3 3 3 2 1 1 1 0 0 1
0 3 3 3 3 3 5 4 6 4 5 4 4 4 4 3 2 1 1 1 0 1 1 1 1 1 1 1 1 1 1 1 2 3 3 3 3 3 4 3 3 3 2 1 1 1 1 1 1
3 4 3 4 2 5 3 4 7 5 4 4 5 5 4 3 3 2 1 1 0 1 1 1 1 2 2 2 2 1 1 1 1 2 2 3 3 2 3 3 2 2 1 1 1 1 1 1 1
2 5 5 3 4 5 3 5 5 4 2 1 3 4 3 2 2 2 2 1 1 1 1 1 1 2 2 2 2 2 2 1 2 2 2 3 3 3 3 3 2 2 1 1 1 1 1 1 1
3 2 3 3 1 3 5 5 5 1 1 2 1 2 2 2 1 1 1 1 1 1 1 1 1 2 2 2 2 2 2 2 2 3 3 3 3 3 3 3 2 2 1 0 0 1 1 1 1
2 4 4 3 2 4 6 5 4 4 4 2 2 2 2 1 1 1 1 1 1 1 1 1 1 2 3 3 2 3 3 3 3 3 3 4 4 4 4 3 2 1 1 1 1 1 1 1 1
2 2 3 2 3 3 4 6 4 5 5 5 5 4 3 2 2 2 2 1 1 1 1 2 2 2 3 3 3 3 3 3 3 3 4 4 4 4 3 2 2 2 1 1 1 2 1 1 1
3 4 5 3 4 4 3 7 3 3 3 3 3 3 2 2 2 2 1 1 1 2 2 2 2 3 3 3 3 3 3 3 3 4 4 4 4 4 3 2 2 2 2 2 2 2 2 2 2
Wind_Direction
332 335 52 57 59 55 234 269 259 319 22 31 63 89 100 89 102 134 122 73 82 86 78 84 81 76 70 67 70 70 68 66 64 62 62 66 67 66 64 70 77 80 82 84 87 89 94 96 98
334 354 56 62 94 123 265 266 248 260 195 135 67 79 79 71 68 95 68 55 85 87 79 80 82 79 72 69 70 68 66 65 64 63 62 64 65 65 65 66 68 74 80 84 85 87 92 97 100
332 43 79 81 123 177 212 238 205 302 11 99 71 56 87 97 91 110 136 105 88 75 73 79 79 77 74 72 67 63 63 62 64 66 66 63 61 61 59 58 60 62 65 76 85 90 91 98 104
49 48 59 85 181 215 202 235 224 359 14 37 100 76 66 28 120 133 112 98 92 70 68 76 78 74 72 71 67 61 58 60 62 63 65 64 60 59 57 54 54 57 59 64 69 76 89 94 105
62 79 77 95 221 238 234 261 313 29 5 8 85 104 71 0 66 91 92 90 94 78 69 74 74 73 69 68 66 62 58 57 57 59 61 62 62 58 58 57 55 57 60 61 59 62 71 86 99
60 76 110 192 219 244 274 297 35 45 33 12 75 108 113 13 73 87 89 86 86 85 70 73 73 72 70 67 64 60 58 54 53 55 57 57 56 56 57 57 56 60 63 63 60 60 63 75 94
109 112 164 183 197 241 255 18 57 74 23 344 96 114 135 9 78 95 86 84 76 73 65 57 62 67 67 63 63 61 58 55 52 50 50 51 52 49 50 52 52 57 59 61 60 57 65 66 84
129 117 153 188 189 226 282 34 53 67 12 358 67 130 173 204 120 91 79 73 71 64 59 51 52 54 58 62 60 61 58 55 52 47 47 45 44 42 42 43 44 50 56 54 54 52 56 55 62
97 95 193 204 189 207 26 50 15 35 75 36 35 114 158 131 104 86 77 62 61 58 50 51 49 47 53 64 58 56 56 50 46 44 43 37 35 34 32 35 39 45 48 49 48 42 37 37 53
96 162 212 226 188 167 34 38 45 39 25 26 33 43 85 106 108 100 94 84 72 56 45 45 47 42 48 55 55 51 51 45 39 39 37 35 34 33 29 32 31 32 33 36 37 31 30 34 36
126 173 186 303 205 120 54 355 1 119 299 227 173 139 123 117 114 110 105 103 97 88 60 43 45 40 43 43 51 49 47 43 39 36 31 35 33 30 27 25 20 22 25 30 30 30 33 39 40
110 330 170 284 359 18 319 199 8 319 233 189 154 145 134 128 131 129 123 106 87 76 53 45 43 43 42 49 48 50 43 39 35 28 31 36 30 24 20 20 17 17 15 20 28 36 36 37 37
164 207 9 46 47 50 67 52 174 265 217 107 109 119 133 137 136 134 126 113 83 70 45 34 40 41 41 47 43 44 39 39 31 29 30 38 32 12 9 9 13 11 13 16 20 34 40 36 32
153 112 332 344 350 330 141 269 175 242 148 106 109 128 136 141 137 107 81 77 72 65 51 47 45 39 43 43 42 40 39 36 36 31 23 32 37 19 6 5 5 1 4 9 19 28 40 40 47
77 42 349 295 252 223 101 313 229 210 136 127 144 150 119 117 116 112 107 95 87 76 59 56 56 42 44 40 39 38 38 37 31 27 25 28 29 24 16 4 358 349 357 13 34 40 50 39 37
45 50 308 283 218 189 142 254 250 195 141 162 165 146 124 109 114 111 95 85 74 66 56 46 44 40 39 37 34 33 33 33 27 26 28 29 28 25 27 14 355 350 8 26 30 36 28 8 2
38 244 254 279 239 129 190 250 252 201 160 172 173 163 142 126 107 105 95 91 83 74 61 48 45 47 39 37 31 30 34 32 24 28 28 24 27 26 26 21 2 360 14 26 29 25 31 14 359
222 236 251 252 267 255 247 262 260 218 188 188 187 179 160 150 179 150 110 92 83 74 61 49 41 39 41 43 36 28 29 23 19 18 22 19 19 26 25 20 14 16 17 18 29 36 28 12 358
195 217 264 267 273 266 254 265 258 239 203 198 197 188 176 189 177 123 105 90 78 62 57 48 42 27 35 35 27 23 4 357 358 7 17 18 16 18 25 18 17 14 13 360 12 50 50 13 15
159 235 275 295 318 294 272 275 263 237 214 206 198 196 186 166 134 110 104 83 77 64 50 48 43 33 39 28 350 339 325 322 343 358 8 14 16 14 15 15 7 4 9 18 21 33 45 347 13
264 212 239 273 318 319 306 300 280 264 171 171 181 182 183 173 165 151 109 83 70 50 37 32 21 29 29 31 28 19 18 3 9 1 354 359 11 13 7 359 1 360 6 304 321 26 103 260 332
246 244 241 268 321 292 225 277 274 247 250 223 206 186 182 170 149 147 126 110 103 312 355 26 23 23 15 27 51 48 27 357 325 319 326 341 359 2 3 359 356 353 353 326 284 1 275 173 280
220 262 270 264 209 298 273 228 279 255 246 243 227 207 196 179 156 156 159 174 186 272 1 359 25 16 14 17 37 57 10 334 329 334 334 334 347 349 351 355 347 339 335 305 326 344 337 203 232
122 38 30 46 82 267 236 198 272 237 232 234 219 209 202 187 172 160 147 143 85 24 12 14 31 355 359 6 9 21 355 339 346 340 332 323 322 331 342 350 349 339 330 298 267 252 245 261 280
70 85 29 354 337 253 249 211 252 263 249 206 199 200 201 187 175 172 148 127 49 12 352 355 11 338 333 347 348 335 314 298 291 303 309 309 309 311 309 326 330 323 319 324 343 329 280 266 245
184 142 157 208 239 282 295 235 258 283 275 164 163 169 169 175 180 189 188 185 195 285 322 330 329 325 326 330 320 316 304 287 284 285 289 293 293 292 297 305 310 311 334 346 356 298 277 280 267
142 168 169 143 202 270 268 282 298 312 27 75 116 139 166 188 201 203 200 198 213 256 280 289 306 322 322 315 313 307 305 303 293 297 298 297 299 307 309 298 284 291 311 340 317 291 292 282 278
135 140 106 128 185 264 285 268 250 246 241 234 219 217 245 249 233 235 233 247 253 246 267 296 301 301 310 306 299 310 302 298 291 293 298 300 301 305 302 294 274 276 292 295 243 263 289 307 296
137 133 132 146 176 189 271 270 234 215 216 210 222 221 219 230 232 228 245 258 270 278 272 290 309 317 312 304 299 302 300 304 305 296 292 291 294 299 293 286 269 256 259 260 249 258 261 265 282
187 179 154 170 236 204 228 269 278 223 230 199 217 237 240 235 249 254 250 265 279 295 300 296 299 304 300 297 298 295 299 309 308 303 302 300 296 299 291 289 275 260 251 246 240 253 260 250 256
Height
1512 1512 1513 1515 1519 1530 1532 1525 1519 1516 1515 1514 1513 1513 1516 1520 1524 1530 1529 1526 1527 1528 1528 1529 1529 1529 1529 1530 1529 1529 1529 1529 1528 1528 1528 1528 1528 1528 1528 1528 1528 1528 1529 1529 1529 1530 1530 1530 1530
1511 1512 1514 1515 1525 1537 1533 1523 1519 1515 1514 1513 1514 1515 1517 1521 1523 1525 1525 1526 1527 1528 1528 1528 1529 1529 1529 1529 1529 1529 1529 1528 1528 1528 1528 1528 1528 1528 1527 1527 1528 1528 1528 1529 1529 1529 1529 1530 1530
1511 1512 1514 1518 1528 1533 1527 1519 1517 1514 1513 1513 1515 1517 1519 1523 1524 1524 1525 1526 1527 1527 1527 1528 1528 1528 1528 1529 1528 1528 1528 1528 1528 1528 1528 1527 1527 1527 1527 1527 1527 1527 1528 1528 1528 1529 1529 1529 1530
1512 1513 1515 1522 1526 1523 1520 1517 1515 1514 1514 1514 1515 1519 1522 1524 1525 1525 1525 1525 1526 1527 1527 1527 1528 1528 1528 1528 1528 1528 1528 1527 1527 1527 1527 1527 1527 1526 1526 1526 1526 1527 1527 1527 1527 1528 1529 1529 1529
1511 1512 1519 1527 1524 1520 1517 1515 1514 1515 1516 1516 1516 1519 1522 1524 1524 1524 1524 1525 1525 1526 1527 1527 1527 1527 1527 1527 1527 1527 1527 1527 1527 1526 1526 1526 1526 1526 1526 1525 1525 1526 1526 1526 1527 1527 1528 1528 1528
1511 1513 1525 1529 1523 1518 1516 1515 1515 1516 1517 1517 1517 1520 1523 1524 1524 1524 1524 1524 1525 1525 1526 1527 1527 1527 1527 1527 1527 1527 1527 1526 1526 1526 1525 1525 1525 1525 1525 1525 1525 1525 1525 1525 1526 1526 1526 1527 1527
1511 1516 1522 1523 1522 1519 1516 1515 1516 1516 1517 1518 1518 1520 1522 1523 1524 1523 1524 1524 1525 1525 1525 1526 1526 1526 1526 1526 1526 1526 1526 1526 1525 1525 1524 1524 1524 1524 1524 1524 1524 1524 1524 1524 1525 1525 1525 1525 1526
1510 1515 1520 1521 1520 1518 1515 1515 1516 1516 1517 1518 1518 1519 1521 1523 1523 1523 1523 1524 1524 1524 1524 1525 1525 1525 1525 1525 1525 1525 1525 1524 1524 1524 1523 1523 1523 1522 1522 1522 1522 1522 1522 1523 1523 1523 1523 1524 1524
1510 1518 1522 1519 1517 1516 1514 1515 1517 1518 1517 1518 1518 1519 1520 1521 1522 1522 1522 1523 1523 1523 1523 1524 1524 1524 1524 1524 1524 1524 1524 1523 1523 1522 1522 1522 1521 1521 1521 1521 1521 1521 1521 1521 1521 1521 1522 1522 1522
1509 1519 1517 1514 1513 1514 1514 1515 1517 1518 1518 1519 1519 1519 1520 1520 1520 1520 1521 1521 1521 1522 1522 1523 1523 1523 1523 1523 1523 1522 1522 1522 1521 1521 1520 1520 1520 1519 1519 1519 1519 1519 1519 1519 1519 1519 1519 1520 1520
1510 1514 1513 1513 1513 1513 1514 1516 1517 1518 1519 1519 1519 1519 1519 1520 1520 1520 1520 1521 1521 1521 1521 1521 1522 1521 1521 1521 1521 1521 1520 1520 1520 1519 1519 1518 1518 1518 1517 1517 1517 1517 1517 1517 1517 1517 1517 1517 1518
1511 1512 1512 1513 1513 1513 1514 1515 1517 1517 1518 1518 1518 1518 1518 1519 1519 1520 1520 1520 1520 1520 1520 1521 1520 1520 1520 1519 1519 1519 1519 1518 1518 1518 1517 1516 1516 1516 1515 1515 1515 1515 1514 1514 1514 1515 1515 1515 1516
1512 1513 1513 1513 1513 1514 1514 1515 1516 1517 1517 1518 1518 1518 1518 1518 1519 1520 1520 1520 1519 1519 1519 1519 1519 1519 1518 1518 1517 1517 1517 1517 1516 1516 1515 1514 1514 1514 1513 1513 1513 1512 1512 1512 1512 1512 1513 1513 1514
1512 1513 1513 1513 1513 1514 1514 1515 1516 1516 1517 1517 1517 1517 1518 1518 1518 1518 1518 1518 1518 1518 1518 1518 1517 1517 1517 1516 1516 1515 1515 1515 1514 1514 1513 1512 1512 1511 1511 1511 1510 1510 1510 1510 1510 1510 1510 1511 1511
1512 1514 1514 1513 1513 1514 1514 1515 1514 1514 1515 1515 1516 1516 1517 1517 1517 1517 1517 1517 1517 1517 1517 1516 1516 1515 1515 1514 1514 1513 1513 1512 1512 1511 1511 1510 1509 1509 1509 1508 1508 1508 1507 1507 1507 1508 1508 1508 1508
1513 1517 1519 1515 1513 1513 1517 1517 1513 1513 1513 1514 1514 1515 1515 1516 1516 1516 1516 1516 1516 1515 1515 1515 1514 1514 1513 1513 1512 1512 1511 1511 1510 1509 1508 1507 1507 1506 1506 1506 1505 1505 1505 1505 1505 1505 1505 1505 1505
1518 1522 1519 1516 1513 1513 1515 1515 1512 1512 1512 1512 1513 1513 1514 1514 1515 1514 1514 1514 1514 1514 1513 1513 1512 1512 1512 1511 1510 1510 1509 1508 1508 1507 1506 1505 1504 1504 1503 1503 1503 1503 1502 1502 1502 1502 1502 1502 1502
1520 1521 1518 1517 1513 1513 1514 1513 1510 1510 1511 1511 1512 1512 1512 1512 1513 1513 1513 1513 1513 1512 1512 1511 1511 1510 1510 1509 1508 1508 1507 1506 1506 1505 1503 1502 1502 1501 1501 1500 1500 1500 1499 1499 1500 1500 1500 1500 1500
1516 1518 1518 1515 1512 1513 1513 1512 1510 1509 1509 1510 1511 1511 1510 1511 1512 1512 1511 1511 1511 1510 1510 1509 1509 1508 1507 1507 1506 1505 1504 1504 1503 1502 1501 1501 1500 1499 1498 1498 1497 1497 1497 1497 1497 1497 1497 1497 1497
1515 1517 1518 1515 1512 1513 1512 1511 1509 1508 1508 1508 1508 1509 1509 1509 1509 1510 1510 1509 1509 1508 1507 1507 1507 1506 1506 1505 1504 1504 1503 1502 1501 1501 1500 1499 1498 1497 1496 1495 1495 1494 1494 1494 1494 1494 1494 1494 1495
1516 1518 1518 1517 1514 1512 1514 1513 1509 1507 1507 1507 1507 1507 1508 1508 1507 1508 1507 1507 1507 1506 1506 1505 1505 1504 1504 1503 1503 1502 1501 1500 1499 1498 1497 1497 1496 1495 1494 1493 1492 1492 1491 1491 1491 1492 1492 1492 1492
1516 1514 1515 1515 1519 1521 1518 1520 1511 1508 1507 1506 1506 1506 1506 1507 1506 1506 1506 1505 1505 1505 1505 1504 1503 1503 1502 1501 1501 1499 1498 1497 1496 1496 1495 1495 1494 1493 1492 1491 1490 1489 1489 1489 1489 1489 1489 1490 1489
1514 1513 1514 1515 1519 1523 1520 1522 1513 1509 1507 1505 1504 1504 1505 1505 1505 1505 1504 1504 1504 1504 1503 1502 1502 1501 1500 1500 1499 1498 1497 1496 1495 1494 1493 1492 1491 1490 1489 1488 1487 1487 1486 1486 1486 1486 1487 1487 1487
1513 1515 1517 1521 1524 1527 1520 1523 1514 1509 1504 1502 1502 1502 1503 1503 1503 1503 1503 1503 1502 1502 1501 1500 1499 1499 1498 1497 1497 1496 1495 1494 1493 1492 1491 1490 1489 1488 1487 1486 1485 1484 1484 1483 1483 1483 1484 1484 1485
1515 1522 1530 1529 1533 1526 1517 1517 1511 1502 1500 1499 1499 1499 1500 1501 1501 1501 1501 1501 1500 1500 1499 1498 1497 1496 1496 1495 1494 1493 1492 1491 1490 1489 1488 1487 1486 1485 1484 1484 1483 1482 1481 1481 1481 1481 1482 1482 1482
1516 1519 1528 1530 1532 1525 1517 1515 1507 1501 1498 1497 1497 1498 1499 1499 1500 1500 1499 1499 1498 1498 1497 1496 1495 1494 1493 1492 1491 1491 1490 1488 1487 1487 1486 1484 1483 1482 1482 1481 1480 1480 1480 1479 1479 1479 1479 1479 1479
1516 1520 1521 1528 1532 1531 1520 1514 1505 1500 1499 1498 1497 1497 1497 1498 1498 1498 1498 1497 1496 1496 1495 1494 1493 1492 1491 1489 1488 1487 1487 1485 1484 1484 1483 1482 1481 1480 1479 1478 1478 1477 1477 1477 1477 1477 1477 1477 1477
1514 1517 1525 1529 1529 1526 1519 1514 1507 1502 1500 1499 1498 1497 1496 1496 1497 1496 1496 1495 1494 1494 1493 1492 1491 1489 1488 1487 1486 1484 1483 1482 1481 1481 1480 1478 1477 1476 1476 1475 1475 1475 1475 1474 1474 1474 1474 1474 1474
1517 1519 1521 1527 1528 1527 1526 1512 1498 1497 1496 1496 1496 1495 1495 1495 1494 1494 1494 1493 1492 1491 1490 1489 1488 1486 1485 1484 1482 1481 1480 1479 1478 1477 1476 1475 1474 1473 1472 1472 1472 1472 1472 1472 1471 1471 1471 1471 1471
1513 1515 1520 1524 1526 1527 1526 1512 1494 1494 1493 1494 1494 1494 1494 1493 1493 1492 1491 1491 1490 1489 1487 1486 1485 1483 1482 1480 1479 1478 1477 1476 1475 1474 1473 1472 1471 1470 1469 1469 1469 1469 1469 1469 1469 1468 1468 1468 1468